Location: Unspecified
(35.6961°N, 0.0000°E)
Time: 00:09:05
(UTC+00:00)

Hubble Space Telescope - Visible Passes

Search period start: 21 April 2019 00:00
Search period end: 01 May 2019 00:00
Orbit: 537 x 540 km, 28.5° (Epoch: 20 April)

Date Brightness Start Highest point End Pass type
(mag) Time Alt. Az. Time Alt. Az. Time Alt. Az.
24 Apr 2.5 04:44:36 10° SW 04:47:51 22° SSE 04:51:06 10° ESE visible
25 Apr 2.3 04:33:52 10° SW 04:37:16 25° S 04:40:40 10° ESE visible
26 Apr 2.1 04:23:46 13° SW 04:26:42 27° S 04:30:12 10° ESE visible
27 Apr 2.0 04:13:44 17° SW 04:16:08 28° S 04:19:42 10° ESE visible
28 Apr 1.9 04:03:42 21° SW 04:05:33 29° S 04:09:11 10° ESE visible
29 Apr 1.8 03:53:41 25° SSW 03:54:59 30° S 03:58:38 10° ESE visible
30 Apr 1.7 03:43:44 28° SSW 03:44:25 29° S 03:48:03 10° ESE visible
